(518510) = 2006 HG75 = 2010 PC42

Discovered at Kitt Peak on 2006-04-25 by Spacewatch.

Orbit

Orbit type: Main Belt

Note: WebGL enabled browser required.

epoch2023-09-13.0
epoch JD2460200.5
perihelion date2022-08-23.37893
perihelion JD2459814.87893
argument of perihelion (°)149.11913
ascending node (°)101.93119
inclination (°)11.30420
eccentricity0.1729528
perihelion distance (AU)2.0953492
Tisserand w.r.t. Jupiter3.4
ΔV w.r.t. Earth (km/sec)9.7
semimajor axis (AU)2.5335302
mean anomaly (°)94.24877
mean daily motion (°/day)0.24440770
aphelion distance (AU)2.972
period (years)4.03
P-vector [x]-0.31499577
P-vector [y]-0.90588895
P-vector [z]-0.28309518
Q-vector [x]0.92951429
Q-vector [y]-0.23418104
Q-vector [z]-0.28489021
absolute magnitude18.04
phase slope0.15
uncertainty1
referenceE2023-SF4
observations used93
oppositions7
arc length (days)6358
first opposition used2006
last opposition used2023
residual rms (arc-secs)0.39
perturbers coarse indicatorM-v
perturbers precise indicator003Ek
first observation date used2006-04-25.0
last observation date used2023-09-21.0
computer nameMPCLINUX
JD of orbit computation2458251.043727
perihelion JD uncertainty (days)1.9046E-03
argument of perihelion uncertainty (°)7.1543E-04
ascending node uncertainty (°)1.3415E-04
inclination uncertainty (°)2.0446E-05
eccentricity uncertainty 1.0715E-06
perihelion distance uncertainty (AU)2.7501E-06
Minimum Orbit Intersection Distances (in AU)
for orbit epoch: 2460200.5, reference: E2023-SF4
Mercury1.63556
Venus1.37426
Earth1.08797
Mars0.62474
Jupiter2.10725
Saturn6.09853
Uranus15.8717
Neptune26.9508

Observations

94 total observations over interval: 2006 04 25.37210 – 2023 09 21.508328
These data are available for download (format description).

Date (UT) J2000 RA J2000 Dec Magn Location Ref
2006 04 25.37210 15 55 02.80 -02 59 47.8   691 – Steward Observatory, Kitt Peak-Spacewatch MPS 170928
2006 04 25.38951 15 55 02.11 -02 59 45.4   691 – Steward Observatory, Kitt Peak-Spacewatch MPS 170928
2006 04 25.40689 15 55 01.44 -02 59 43.4   691 – Steward Observatory, Kitt Peak-Spacewatch MPS 170928
2006 04 29.35645 15 52 24.49 -02 52 49.7 20.9 V 691 – Steward Observatory, Kitt Peak-Spacewatch MPS 170928
2006 04 29.37377 15 52 23.71 -02 52 47.7 20.6 V 691 – Steward Observatory, Kitt Peak-Spacewatch MPS 170928
2006 04 29.39111 15 52 22.93 -02 52 46.6 20.9 V 691 – Steward Observatory, Kitt Peak-Spacewatch MPS 170928
2006 05 03.37747 15 49 21.82 -02 48 09.2 20.6 V 691 – Steward Observatory, Kitt Peak-Spacewatch MPS 170928
2006 05 03.39482 15 49 20.94 -02 48 08.3 20.8 V 691 – Steward Observatory, Kitt Peak-Spacewatch MPS 170928
2006 05 03.41218 15 49 20.05 -02 48 07.2 20.7 V 691 – Steward Observatory, Kitt Peak-Spacewatch MPS 170928
2006 05 07.31898 15 46 04.78 -02 46 13.7 20.9 V 691 – Steward Observatory, Kitt Peak-Spacewatch MPS 171426
2006 05 07.33984 15 46 03.60 -02 46 13.3 20.6 V 691 – Steward Observatory, Kitt Peak-Spacewatch MPS 171426
2006 05 07.36071 15 46 02.49 -02 46 13.1 20.7 V 691 – Steward Observatory, Kitt Peak-Spacewatch MPS 171426
2010 01 30.311017 14 50 24.053 -03 19 00.55   C51 – WISE MPS 904610
2010 01 30.840362 14 51 07.445 -03 20 04.09   C51 – WISE MPS 904610
2010 01 31.038882 14 51 23.503 -03 20 24.76   C51 – WISE MPS 904610
2010 01 31.171186 14 51 34.330 -03 20 41.82   C51 – WISE MPS 904610
2010 01 31.303618 14 51 45.187 -03 20 54.06   C51 – WISE MPS 904610
2010 01 31.435922 14 51 55.752 -03 21 09.14   C51 – WISE MPS 904610
2010 01 31.568227 14 52 06.655 -03 21 24.66   C51 – WISE MPS 904610
2010 04 14.42372 15 34 17.50 -00 51 15.5 20.6 V G96 – Mt. Lemmon Survey MPS 344904
2010 04 14.42958 15 34 17.32 -00 51 13.5 20.8 V G96 – Mt. Lemmon Survey MPS 344904
2010 04 14.43546 15 34 17.14 -00 51 12.8 20.9 V G96 – Mt. Lemmon Survey MPS 344904
2010 05 12.31589 15 12 47.55 -00 01 49.1 20.3 V G96 – Mt. Lemmon Survey MPS 344904
2010 05 12.32233 15 12 47.23 -00 01 49.7 20.2 V G96 – Mt. Lemmon Survey MPS 344904
2010 05 12.32881 15 12 46.80 -00 01 50.4 20.3 V G96 – Mt. Lemmon Survey MPS 344904
2010 05 12.33525 15 12 46.40 -00 01 50.9 20.4 V G96 – Mt. Lemmon Survey MPS 344904
2010 08 06.49233 15 14 46.63 -12 17 20.5   C51 – WISE MPS 344097
2010 08 06.62464 15 14 55.63 -12 18 50.6   C51 – WISE MPS 344097
2010 08 06.75694 15 15 04.83 -12 20 21.0   C51 – WISE MPS 344097
2010 08 07.02155 15 15 22.97 -12 23 24.3   C51 – WISE MPS 344097
2010 08 07.08764 15 15 27.64 -12 24 08.1   C51 – WISE MPS 344097
2010 08 07.15385 15 15 32.19 -12 24 56.5   C51 – WISE MPS 344097
2010 08 07.21994 15 15 36.79 -12 25 39.3   C51 – WISE MPS 344097
2010 08 07.28616 15 15 41.38 -12 26 24.5   C51 – WISE MPS 344097
2010 08 07.35225 15 15 45.99 -12 27 09.4   C51 – WISE MPS 344097
2010 08 07.41846 15 15 50.65 -12 27 54.3   C51 – WISE MPS 344097
2010 08 07.48455 15 15 55.15 -12 28 40.0   C51 – WISE MPS 344097
2010 08 07.61685 15 16 04.35 -12 30 09.6   C51 – WISE MPS 344097
2010 08 08.01377 15 16 32.26 -12 34 39.7   C51 – WISE MPS 344097
2014 05 05.40534 14 45 22.880 +03 24 56.52 20.3 w F51 – Pan-STARRS 1, Haleakala MPS 513825
2014 05 05.41834 14 45 22.132 +03 24 56.91 20.3 w F51 – Pan-STARRS 1, Haleakala MPS 513825
2014 05 05.43130 14 45 21.364 +03 24 57.10 20.4 w F51 – Pan-STARRS 1, Haleakala MPS 513825
2014 05 24.18811 14 29 34.31 +02 41 50.1 20.4 V G96 – Mt. Lemmon Survey MPS 516466
2014 05 24.19692 14 29 33.90 +02 41 47.7 20.6 V G96 – Mt. Lemmon Survey MPS 516466
2014 05 24.20571 14 29 33.51 +02 41 45.1 20.8 V G96 – Mt. Lemmon Survey MPS 516466
2018 04 14.35840 14 38 45.30 +05 05 58.5 20.5 G G96 – Mt. Lemmon Survey MPS 881785
2018 04 14.36359 14 38 45.07 +05 06 00.2 20.9 G G96 – Mt. Lemmon Survey MPS 881785
2018 04 14.36877 14 38 44.80 +05 06 00.8 20.9 G G96 – Mt. Lemmon Survey MPS 881785
2018 04 14.37396 14 38 44.55 +05 06 02.7 20.9 G G96 – Mt. Lemmon Survey MPS 881785
2018 04 17.70430 14 36 06.85 +05 20 53.6 21.3 R D29 – Purple Mountain Observatory, XuYi Station MPS 881785
2018 04 17.71314 14 36 06.46 +05 20 54.5 20.6 R D29 – Purple Mountain Observatory, XuYi Station MPS 881785
2018 04 21.34788 14 33 02.21 +05 34 40.9 20.6 G G96 – Mt. Lemmon Survey MPS 884600
2018 04 21.35303 14 33 01.95 +05 34 42.2 20.7 G G96 – Mt. Lemmon Survey MPS 884600
2018 04 21.35818 14 33 01.66 +05 34 43.0 20.5 G G96 – Mt. Lemmon Survey MPS 884600
2018 04 21.36334 14 33 01.38 +05 34 44.0 20.5 G G96 – Mt. Lemmon Survey MPS 884601
2018 05 12.25983 14 14 27.70 +05 49 04.4 20.7 G G96 – Mt. Lemmon Survey MPS 890986
2018 05 12.26507 14 14 27.45 +05 49 03.9 20.8 G G96 – Mt. Lemmon Survey MPS 890986
2018 05 12.27033 14 14 27.13 +05 49 02.5 20.8 G G96 – Mt. Lemmon Survey MPS 890986
2018 05 12.27558 14 14 26.91 +05 49 02.3 20.8 G G96 – Mt. Lemmon Survey MPS 890986
2019 10 22.42987 00 56 49.714 -12 40 45.62 21.7 w F52 – Pan-STARRS 2, Haleakala MPS 1195412
2019 10 22.44144 00 56 49.097 -12 40 47.30 21.6 w F52 – Pan-STARRS 2, Haleakala MPS 1195412
2019 10 22.45306 00 56 48.508 -12 40 47.85 21.6 w F52 – Pan-STARRS 2, Haleakala MPS 1195412
2022 02 09.576141 14 15 12.040 +01 57 40.84 21.86 w F52 – Pan-STARRS 2, Haleakala MPS 1558111
2022 02 09.597771 14 15 13.080 +01 57 43.37 22.00 w F52 – Pan-STARRS 2, Haleakala MPS 1558111
2022 02 09.608642 14 15 13.601 +01 57 44.72 22.10 w F52 – Pan-STARRS 2, Haleakala MPS 1558111
2022 03 03.581397 14 28 02.485 +03 20 08.52 21.41 w F52 – Pan-STARRS 2, Haleakala MPS 1570977
2022 03 03.604808 14 28 02.843 +03 20 16.01 21.54 w F52 – Pan-STARRS 2, Haleakala MPS 1570977
2022 03 03.616593 14 28 03.018 +03 20 19.82 21.57 w F52 – Pan-STARRS 2, Haleakala MPS 1570977
2022 04 09.338827 14 18 28.688 +07 14 18.17 20.69 G G96 – Mt. Lemmon Survey MPS 1587946
2022 04 09.343978 14 18 28.426 +07 14 20.00 20.96 G G96 – Mt. Lemmon Survey MPS 1587946
2022 04 09.349121 14 18 28.177 +07 14 21.91 20.82 G G96 – Mt. Lemmon Survey MPS 1587946
2022 04 09.354267 14 18 27.947 +07 14 23.32 20.79 G G96 – Mt. Lemmon Survey MPS 1587946
2022 04 10.508168 14 17 34.762 +07 20 47.77 20.74 w F52 – Pan-STARRS 2, Haleakala MPS 1587946
2022 04 10.519124 14 17 34.232 +07 20 51.27 20.67 w F52 – Pan-STARRS 2, Haleakala MPS 1587946
2022 04 10.541046 14 17 33.144 +07 20 58.28 20.63 w F52 – Pan-STARRS 2, Haleakala MPS 1587946
2022 04 23.374653 14 06 31.650 +08 13 36.78 20.47 w F52 – Pan-STARRS 2, Haleakala MPS 1591835
2022 04 23.406968 14 06 29.799 +08 13 41.84 20.74 w F52 – Pan-STARRS 2, Haleakala MPS 1591835
2022 04 23.420366 14 06 29.034 +08 13 43.78 20.67 w F52 – Pan-STARRS 2, Haleakala MPS 1591835
2022 04 28.381285 14 01 59.197 +08 22 56.95 20.70 w F52 – Pan-STARRS 2, Haleakala MPS 1596310
2022 04 28.404306 14 01 57.888 +08 22 58.54 20.71 w F52 – Pan-STARRS 2, Haleakala MPS 1596310
2022 04 28.415865 14 01 57.236 +08 22 59.58 20.73 w F52 – Pan-STARRS 2, Haleakala MPS 1596310
2022 04 30.359502 14 00 12.827 +08 24 35.93 20.42 G G96 – Mt. Lemmon Survey MPS 1596310
2022 04 30.364707 14 00 12.532 +08 24 36.68 20.41 G G96 – Mt. Lemmon Survey MPS 1596310
2022 04 30.369934 14 00 12.330 +08 24 36.54 20.66 G G96 – Mt. Lemmon Survey MPS 1596310
2022 04 30.375148 14 00 11.948 +08 24 36.61 20.51 G G96 – Mt. Lemmon Survey MPS 1596310
2022 05 06.638331 13 54 51.12 +08 22 01.5 20.5 R D29 – Purple Mountain Observatory, XuYi Station MPS 1596310
2022 05 06.652473 13 54 50.52 +08 22 01.9 21.1 R D29 – Purple Mountain Observatory, XuYi Station MPS 1596310
2022 05 26.292181 13 43 00.808 +06 58 21.18 21.09 G G96 – Mt. Lemmon Survey MPS 1618470
2022 05 26.297364 13 43 00.678 +06 58 19.31 21.04 G G96 – Mt. Lemmon Survey MPS 1618470
2022 05 26.302573 13 43 00.559 +06 58 16.64 21.65 G G96 – Mt. Lemmon Survey MPS 1618470
2022 05 26.307758 13 43 00.430 +06 58 14.99 20.91 G G96 – Mt. Lemmon Survey MPS 1618470
2023 09 21.479532 01 09 27.659 -11 53 20.52 21.62 w F52 – Pan-STARRS 2, Haleakala MPS 2013521
2023 09 21.498726 01 09 26.680 -11 53 28.59 21.79 w F52 – Pan-STARRS 2, Haleakala MPS 2013521
2023 09 21.508328 01 09 26.190 -11 53 32.60 21.39 w F52 – Pan-STARRS 2, Haleakala MPS 2013521